Flag for Zimbabwe Weather past 2 weeks in Harare, Zimbabwe

Now
48 °F

Clear.


Feels Like: 45 °F
Forecast: 40 / 75 °F
Wind: 8 mph from East

Location: Harare Kutsaga Airport

Current Time: Jul 6, 2015 at 1:48:12 AM

Latest Report: Jul 6, 2015 at 1:00 AM


Visibility: 10 mi

Pressure: 30.33 "Hg (25.32 "Hg at 1490m altitude)

Humidity: 82%

Dew point: 43 °F

Location of HarareLocation

Historic Weather in Harare — Graph

°F

Harare temperature yesterday

Maximum temperature yesterday: 70 °F (at 3:00 PM)
Minimum temperature yesterday: 43 °F (at 1:00 AM)
Average temperature yesterday: 55 °F

Past Weeks' High & Low Weather Summary

 TemperatureHumidityPressure
High72 °F (Jun 24, 3:00 PM)100% (Jun 25, 4:00 AM)30.48 "Hg (Jun 25, 4:00 AM)
Low39 °F (Jul 1, 5:00 AM)27% (Jun 29, 3:00 PM)30.27 "Hg (Jun 28, 3:00 PM)
Average57 °F64%30.36 "Hg
* Reported Jun 23 3:00 PM — Midnight between Jul 5 and Jul 6, Harare, Weather by CustomWeather, © 2015

Note: Actual official high and low records may vary slightly from our data, if they occured in-between our weather recording intervals... More about our weather records

Advertising

Harare weather history for previous 24 hours

 ConditionsComfort  
Time TempWeatherWind HumidityBarometerVisibility
12:00 AM
Mon, Jul 6
50 °FClear.8 mph76%30.36 "Hg10 mi
11:00 PM
Sun, Jul 5
52 °FClear.8 mph72%30.36 "Hg10 mi
10:00 PM50 °FClear.6 mph76%30.36 "Hg10 mi
9:00 PM52 °FClear.7 mph72%30.36 "Hg10 mi
8:00 PM54 °FClear.8 mph67%30.33 "Hg10 mi
7:00 PM55 °FClear.9 mph63%30.33 "Hg10 mi
6:00 PM59 °FClear.8 mph55%30.33 "Hg10 mi
5:00 PM64 °FSunny.8 mph46%30.30 "Hg10 mi
4:00 PM68 °FSunny.7 mph40%30.30 "Hg10 mi
3:00 PM70 °FSunny.8 mph38%30.30 "Hg10 mi
2:00 PM68 °FSunny.7 mph40%30.30 "Hg10 mi
1:00 PM68 °FSunny.7 mph40%30.33 "Hg10 mi
12:00 PM64 °FSunny.7 mph46%30.36 "Hg10 mi
11:00 AM63 °FSunny.8 mph49%30.39 "Hg10 mi
10:00 AM61 °FSunny.10 mph52%30.42 "Hg10 mi
9:00 AM59 °FSunny.9 mph59%30.39 "Hg10 mi
8:00 AM54 °FSunny.7 mph72%30.39 "Hg10 mi
7:00 AM48 °FSunny.9 mph87%30.36 "Hg10 mi
6:00 AM45 °FClear.7 mph100%30.36 "Hg10 mi
5:00 AM45 °FClear.8 mph93%30.33 "Hg10 mi
3:00 AM45 °FClear.8 mph100%30.33 "Hg10 mi
2:00 AM45 °FClear.7 mph100%30.36 "Hg10 mi
1:00 AM43 °FClear.5 mph100%30.36 "Hg10 mi
Weather by CustomWeather, © 2015

See weather overviewHow to use our weather pages